| time (UTC) | temp C | wind direction | speed KPH | gust KPH | rain 1hr cm | rain 24hr cm | rain mn cm | humidity % | barometer mb |
| 20260506014535 | 8 | 37 | 9.7 | 19.3 | 0.00 | 0.00 | 0.00 | 82 | 1008.3 |
| 20260506013033 | 9 | 38 | 9.7 | 17.7 | 0.00 | 0.00 | 0.00 | 81 | 1008.2 |
| 20260506011557 | 9 | 47 | 8.0 | 19.3 | 0.00 | 0.00 | 0.00 | 81 | 1008.3 |
| 20260506010025 | 9 | 41 | 6.4 | 14.5 | 0.00 | 0.00 | 0.00 | 81 | 1007.9 |
| 20260506004523 | 9 | 15 | 8.0 | 14.5 | 0.00 | 0.00 | 0.00 | 80 | 1007.3 |
| 20260506003019 | 10 | 327 | 8.0 | 16.1 | 0.00 | 0.00 | 0.00 | 79 | 1006.9 |
| 20260506001517 | 10 | 49 | 4.8 | 12.9 | 0.00 | 0.00 | 0.00 | 78 | 1006.9 |
| 20260506000021 | 10 | 52 | 6.4 | 19.3 | 0.00 | 0.00 | 0.00 | 77 | 1006.5 |
| 20260505234533 | 10 | 350 | 6.4 | 19.3 | 0.00 | 0.00 | 0.00 | 76 | 1006.6 |
| 20260505233011 | 10 | 17 | 9.7 | 19.3 | 0.00 | 0.00 | 0.00 | 75 | 1006.6 |
| 20260505231509 | 10 | 47 | 6.4 | 19.3 | 0.00 | 0.00 | 0.00 | 76 | 1007.1 |
| 20260505230009 | 10 | 33 | 4.8 | 19.3 | 0.00 | 0.00 | 0.00 | 75 | 1006.5 |
| 20260505224503 | 10 | 57 | 8.0 | 17.7 | 0.00 | 0.00 | 0.00 | 76 | 1006.3 |
| 20260505223003 | 10 | 27 | 11.3 | 22.5 | 0.00 | 0.00 | 0.00 | 76 | 1006.2 |
| 20260505221602 | 11 | 61 | 8.0 | 17.7 | 0.00 | 0.00 | 0.00 | 75 | 1006.0 |
| 20260505221502 | 11 | 34 | 9.7 | 17.7 | 0.00 | 0.00 | 0.00 | 76 | 1005.9 |
| 20260505220058 | 11 | 63 | 9.7 | 22.5 | 0.00 | 0.00 | 0.00 | 75 | 1005.8 |
| 20260505214555 | 11 | 39 | 8.0 | 20.9 | 0.00 | 0.00 | 0.00 | 74 | 1005.6 |
| 20260505213055 | 11 | 65 | 8.0 | 22.5 | 0.00 | 0.00 | 0.00 | 74 | 1005.1 |
| 20260505211555 | 11 | 36 | 9.7 | 30.6 | 0.00 | 0.00 | 0.00 | 75 | 1005.1 |
| 20260505210050 | 11 | 8 | 11.3 | 19.3 | 0.00 | 0.00 | 0.00 | 76 | 1004.6 |
| 20260505204553 | 11 | 65 | 8.0 | 19.3 | 0.00 | 0.00 | 0.00 | 76 | 1004.8 |
| 20260505203057 | 11 | 93 | 6.4 | 19.3 | 0.00 | 0.00 | 0.00 | 76 | 1005.9 |
| 20260505201548 | 11 | 37 | 9.7 | 19.3 | 0.00 | 0.00 | 0.00 | 76 | 1005.0 |
| 20260505200046 | 11 | 25 | 12.9 | 24.1 | 0.00 | 0.00 | 0.00 | 77 | 1004.6 |
| 20260505194603 | 11 | 49 | 8.0 | 24.1 | 0.00 | 0.00 | 0.00 | 80 | 1004.5 |
| 20260505193041 | 11 | 23 | 11.3 | 24.1 | 0.00 | 0.00 | 0.00 | 80 | 1004.3 |
| 20260505191552 | 11 | 35 | 8.0 | 17.7 | 0.00 | 0.00 | 0.00 | 80 | 1004.3 |
| 20260505190038 | 12 | 34 | 6.4 | 16.1 | 0.00 | 0.00 | 0.00 | 80 | 1004.1 |
| 20260505184536 | 12 | 64 | 8.0 | 19.3 | 0.00 | 0.00 | 0.00 | 80 | 1004.3 |
| 20260505183030 | 12 | 36 | 8.0 | 17.7 | 0.00 | 0.00 | 0.00 | 79 | 1004.1 |
| 20260505181528 | 12 | 318 | 6.4 | 22.5 | 0.00 | 0.00 | 0.00 | 78 | 1003.9 |
| 20260505180030 | 13 | 50 | 12.9 | 24.1 | 0.00 | 0.00 | 0.00 | 79 | 1003.4 |
| 20260505174521 | 13 | 54 | 8.0 | 19.3 | 0.00 | 0.00 | 0.00 | 80 | 1003.4 |
| 20260505173018 | 12 | 22 | 8.0 | 17.7 | 0.00 | 0.00 | 0.00 | 81 | 1003.1 |
| 20260505171517 | 13 | 15 | 8.0 | 22.5 | 0.00 | 0.00 | 0.00 | 82 | 1002.8 |
| 20260505170020 | 12 | 32 | 6.4 | 29.0 | 0.00 | 0.00 | 0.00 | 83 | 1002.5 |
| 20260505164512 | 13 | 25 | 9.7 | 16.1 | 0.00 | 0.00 | 0.00 | 83 | 1002.4 |
| 20260505163015 | 13 | 46 | 6.4 | 20.9 | 0.00 | 0.00 | 0.00 | 83 | 1002.1 |
| 20260505161506 | 13 | 75 | 9.7 | 20.9 | 0.00 | 0.00 | 0.00 | 82 | 1001.6 |
| 20260505153055 | 16 | 37 | 6.4 | 12.9 | 0.00 | 0.00 | 0.00 | 82 | 1000.0 |
| 20260505151549 | 16 | 65 | 11.3 | 20.9 | 0.00 | 0.00 | 0.00 | 80 | 999.5 |
| 20260505150105 | 19 | 41 | 6.4 | 14.5 | 0.00 | 0.00 | 0.00 | 83 | 998.8 |
| 20260505124542 | 20 | 36 | 0.0 | 1.6 | 0.00 | 0.00 | 0.00 | 81 | 997.5 |
| 20260505123030 | 20 | 36 | 0.0 | 0.0 | 0.00 | 0.00 | 0.00 | 80 | 997.3 |
| 20260505121546 | 20 | 34 | 0.0 | 3.2 | 0.00 | 0.00 | 0.00 | 79 | 997.0 |
| 20260505120025 | 20 | 59 | 0.0 | 8.0 | 0.00 | 0.00 | 0.00 | 78 | 996.7 |
| 20260505114523 | 20 | 282 | 1.6 | 8.0 | 0.00 | 0.00 | 0.00 | 76 | 995.9 |
| 20260505113021 | 20 | 131 | 3.2 | 9.7 | 0.00 | 0.00 | 0.00 | 76 | 995.5 |
| 20260505111526 | 21 | 117 | 3.2 | 9.7 | 0.00 | 0.00 | 0.00 | 75 | 995.2 |
| 20260505101513 | 21 | 25 | 4.8 | 16.1 | 0.00 | 0.00 | 0.00 | 75 | 994.9 |
| 20260505100018 | 21 | 203 | 3.2 | 14.5 | 0.00 | 0.00 | 0.00 | 75 | 994.8 |
| 20260505094514 | 21 | 249 | 6.4 | 19.3 | 0.00 | 0.00 | 0.00 | 75 | 994.8 |
| 20260505093022 | 21 | 176 | 4.8 | 19.3 | 0.00 | 0.00 | 0.00 | 75 | 994.8 |
| 20260505091514 | 21 | 240 | 6.4 | 17.7 | 0.00 | 0.00 | 0.00 | 75 | 994.8 |
| 20260505090006 | 21 | 233 | 3.2 | 24.1 | 0.00 | 0.00 | 0.00 | 75 | 994.9 |
| 20260505084504 | 21 | 271 | 6.4 | 16.1 | 0.00 | 0.00 | 0.00 | 75 | 995.1 |
| 20260505083002 | 21 | 297 | 4.8 | 16.1 | 0.00 | 0.00 | 0.00 | 75 | 995.2 |
| 20260505081559 | 21 | 280 | 6.4 | 19.3 | 0.00 | 0.00 | 0.00 | 75 | 995.5 |
| 20260505080057 | 21 | 190 | 4.8 | 14.5 | 0.00 | 0.00 | 0.00 | 75 | 995.4 |
| 20260505074555 | 21 | 198 | 8.0 | 17.7 | 0.00 | 0.00 | 0.00 | 75 | 995.6 |
| 20260505073059 | 21 | 353 | 4.8 | 12.9 | 0.00 | 0.00 | 0.00 | 75 | 995.6 |
| 20260505071551 | 21 | 238 | 6.4 | 17.7 | 0.00 | 0.00 | 0.00 | 75 | 996.0 |
| 20260505070048 | 21 | 252 | 3.2 | 17.7 | 0.00 | 0.00 | 0.00 | 75 | 996.1 |
| 20260505064544 | 21 | 270 | 3.2 | 20.9 | 0.00 | 0.00 | 0.00 | 75 | 996.4 |
| 20260505063049 | 21 | 246 | 9.7 | 17.7 | 0.00 | 0.00 | 0.00 | 74 | 996.3 |
| 20260505061547 | 21 | 313 | 4.8 | 14.5 | 0.00 | 0.00 | 0.00 | 74 | 996.5 |
| 20260505060040 | 22 | 241 | 4.8 | 16.1 | 0.00 | 0.00 | 0.00 | 74 | 996.5 |
| 20260505054555 | 22 | 29 | 8.0 | 17.7 | 0.00 | 0.00 | 0.00 | 74 | 996.8 |
| 20260505053044 | 22 | 146 | 4.8 | 16.1 | 0.00 | 0.00 | 0.00 | 73 | 996.9 |
| 20260505051543 | 22 | 155 | 6.4 | 16.1 | 0.00 | 0.00 | 0.00 | 73 | 997.0 |
| 20260505041544 | 22 | 159 | 8.0 | 17.7 | 0.00 | 0.00 | 0.00 | 73 | 997.4 |
| 20260505040030 | 22 | 174 | 8.0 | 14.5 | 0.00 | 0.00 | 0.00 | 72 | 997.5 |
| 20260505034530 | 22 | 146 | 6.4 | 24.1 | 0.00 | 0.00 | 0.00 | 72 | 997.5 |
| 20260505033029 | 22 | 212 | 8.0 | 24.1 | 0.00 | 0.00 | 0.00 | 71 | 997.5 |
| 20260505031534 | 22 | 144 | 8.0 | 22.5 | 0.00 | 0.00 | 0.00 | 70 | 997.4 |
| 20260505030027 | 23 | 210 | 4.8 | 19.3 | 0.00 | 0.00 | 0.00 | 69 | 997.1 |
| 20260505024526 | 23 | 240 | 4.8 | 19.3 | 0.00 | 0.00 | 0.00 | 68 | 997.0 |
| 20260505023026 | 23 | 12 | 6.4 | 14.5 | 0.00 | 0.00 | 0.00 | 67 | 997.1 |
| 20260505021525 | 23 | 22 | 6.4 | 22.5 | 0.00 | 0.00 | 0.00 | 66 | 996.8 |
| 20260505020125 | 24 | 266 | 3.2 | 17.7 | 0.00 | 0.00 | 0.00 | 65 | 996.7 |